Terminal Aerodrome Forecast
Issued by NWS Grand Forks, ND

Home | Current Version | Previous Version | Text Only | Print | Product List | Glossary On
Versions: 1 2 3 4 5 6 7 8 9 10 11 12 13 14 15 16 17 18 19 20 21 22
000
FTUS43 KFGF 311000 AAA
TAFGFK
TAF AMD
KGFK 311036Z 3111/0106 36018G24KT P6SM SCT025
     FM311600 36017G25KT P6SM BKN070
     FM010200 01014KT P6SM BKN100=

USA.gov is the U.S. government's official web portal to all federal, state and local government web resources and services.